Estherville, IA

1:44 PM CDT on June 28, 2017 (GMT -0500)
Estherville Municipal

Weather History for KEST - January, 2012

Change the Weather History Date:

Monday, January 30, 2012

  Actual Average Record
Temperature  
Mean Temperature 37 °F 17 °F  
Max Temperature 44 °F 25 °F 52 °F (1964)
Min Temperature 29 °F 8 °F -18 °F (1950)
Degree Days  
Heating Degree Days 28 48  
Month to date heating degree days 1261 1482  
Since 1 July heating degree days 3947 4625  
Cooling Degree Days 0 0  
Month to date cooling degree days 0 0  
Year to date cooling degree days 0 0  
Moisture  
Dew Point 27 °F    
Average Humidity 77    
Maximum Humidity 89    
Minimum Humidity 64    
Precipitation  
Precipitation 0.00 in 0.03 in 1.12 in (1984)
Month to date precipitation 0.20 0.47  
Year to date precipitation 0.20  
Sea Level Pressure  
Sea Level Pressure 29.72 in    
Wind  
Wind Speed 11 mph (SSW)    
Max Wind Speed 22 mph    
Max Gust Speed 26 mph    
Visibility 10 miles    
Events      
T = Trace of Precipitation, MM = Missing Value Source: NWS Daily Summary

Daily Weather History Graph

Daily Weather History Graph

Search for Another Location

Airport or City:

Trip Planner

Search our weather history database for the weather conditions in past years. The results will help you decide how hot, cold, wet, or windy it might be!

Date:

Astronomy

Jan. 30, 2012 Rise Set
Actual Time 7:37 AM CST 5:27 PM CST
Civil Twilight 7:07 AM CST 5:57 PM CST
Nautical Twilight 6:32 AM CST 6:32 PM CST
Astronomical Twilight 5:59 AM CST 7:05 PM CST
Moon 10:45 AM CST (1/30) 12:26 AM CST (1/30)
Length of Visible Light 10h 50m
Length of Day
9h 49m
Waxing Crescent, 46% of the Moon is Illuminated
Jan 30
Waxing Crescent
Jan 30
First Quarter
Feb 7
Full
Feb 14
Last Quarter
Feb 21
New

Hourly Weather History & Observations

Time (CST) Temp. Windchill Dew Point Humidity Pressure Visibility Wind Dir Wind Speed Gust Speed Precip Events Conditions
12:52 AM 30.0 °F 17.5 °F 21.0 °F 69% 29.86 in 10.0 mi South 19.6 mph - N/A   Overcast
1:52 AM 30.0 °F 17.9 °F 21.9 °F 72% 29.82 in 10.0 mi South 18.4 mph - N/A   Partly Cloudy
2:52 AM 30.0 °F 18.7 °F 21.9 °F 72% 29.79 in 10.0 mi South 16.1 mph - N/A   Mostly Cloudy
3:52 AM 28.9 °F 19.2 °F 23.0 °F 78% 29.77 in 10.0 mi South 11.5 mph - N/A   Clear
4:52 AM 30.0 °F 19.5 °F 23.0 °F 75% 29.74 in 10.0 mi South 13.8 mph - N/A   Clear
5:52 AM 30.0 °F 23.2 °F 24.1 °F 79% 29.74 in 10.0 mi South 6.9 mph - N/A   Scattered Clouds
6:52 AM 34.0 °F 26.0 °F 24.1 °F 67% 29.73 in 10.0 mi SW 10.4 mph - N/A   Clear
7:52 AM 33.1 °F 26.1 °F 24.1 °F 70% 29.73 in 10.0 mi SW 8.1 mph - N/A   Clear
8:52 AM 34.0 °F 26.0 °F 25.0 °F 70% 29.73 in 10.0 mi WSW 10.4 mph - N/A   Clear
9:52 AM 37.0 °F 28.5 °F 27.0 °F 67% 29.73 in 10.0 mi WSW 13.8 mph - N/A   Clear
10:52 AM 37.9 °F 28.5 °F 28.0 °F 68% 29.73 in 10.0 mi WSW 17.3 mph - N/A   Clear
11:52 AM 39.0 °F 30.6 °F 28.9 °F 67% 29.73 in 10.0 mi WSW 15.0 mph - N/A   Clear
12:52 PM 41.0 °F 34.7 °F 30.9 °F 67% 29.70 in 10.0 mi West 10.4 mph - N/A   Clear
2:52 PM 43.0 °F 38.2 °F 33.1 °F 68% 29.70 in 10.0 mi South 8.1 mph - N/A   Clear
3:52 PM 43.0 °F 38.2 °F 32.0 °F 65% 29.70 in 10.0 mi SW 8.1 mph - N/A   Clear
4:52 PM 39.9 °F 35.1 °F 33.1 °F 77% 29.70 in 10.0 mi South 6.9 mph - N/A   Clear
5:52 PM 36.0 °F 29.0 °F 30.9 °F 82% 29.69 in 10.0 mi South 9.2 mph - N/A   Clear
6:52 PM 42.1 °F 37.1 °F 32.0 °F 67% 29.69 in 10.0 mi SSW 8.1 mph - N/A   Clear
7:52 PM 37.9 °F 33.5 °F 30.9 °F 76% 29.69 in 10.0 mi South 5.8 mph - N/A   Clear
9:52 PM 34.0 °F 27.2 °F 30.0 °F 85% 29.66 in 10.0 mi South 8.1 mph - N/A   Clear
10:52 PM 36.0 °F 28.5 °F 28.9 °F 76% 29.64 in 10.0 mi South 10.4 mph - N/A   Clear
11:52 PM 39.0 °F 31.8 °F 28.9 °F 67% 29.63 in 10.0 mi SSW 11.5 mph - N/A   Clear